[[{"header":{"parameterUnit":"m.s-1","parameterCategory":1,"la1":30.2991,"la2":30.254,"lo1":-89.0895,"lo2":-89.0444,"dy":0.0017,"dx":0.0017,"nx":28,"ny":28,"refTime":"2025-08-06T03:00:00:Z","depth":0,"parameterNumber":2,"parameterNumberName":"U-component_of_WINDS"},"data":[0,0,0,0,0,0,0,0,0,0,0,0,0,0,0,0,0,0,0,0,0,0,0,0,0,0,0,0,0,0,0,0,0,0,0,0,0,0,0,0,0,0,0,0,0,0,0,0,0,0,0,0,0,0,0,0,0,0,1.4983,1.4983,0,1.5053,1.5054,1.5055,1.5087,1.5087,1.5087,1.5087,1.5158,1.516,1.5162,0,0,0,0,0,0,0,0,0,0,0,0,0,1.4873,1.4875,1.4982,1.4983,1.4984,1.5053,1.5054,1.5055,1.5087,1.5087,1.5087,1.5087,1.5157,1.5159,1.5162,0,0,0,0,0,0,0,0,0,0,0,0,0,1.493,1.4876,1.4982,1.5008,1.5012,1.5053,1.5054,1.5055,1.5087,1.5087,1.5087,1.5086,1.5156,1.5159,1.5162,1.5182,0,0,1.5171,1.5172,0,0,0,0,0,0,0,0,1.4927,1.4934,1.5004,1.5007,1.501,1.5061,1.5042,1.5098,1.5087,1.5058,1.5087,1.5086,1.5126,1.5131,1.5144,1.5186,1.5189,1.5171,1.5173,1.5174,1.5175,0,0,0,0,0,0,0,1.4923,1.4931,1.501,1.5005,1.5009,1.5016,1.5024,1.5052,1.5092,1.5061,1.5063,1.5071,1.5127,1.5142,1.5146,1.519,1.5171,1.5174,1.5176,1.5177,1.5249,1.525,0,0,0,0,0,0,1.4915,1.4928,1.5008,1.5013,1.4967,1.5018,1.5027,1.5045,1.5091,1.5098,1.5071,1.5072,1.5137,1.5143,1.5149,1.5175,1.5174,1.5177,1.5179,1.5249,1.525,1.525,0,0,0,0,0,0,1.4912,1.4922,1.5005,1.4971,1.4982,1.502,1.504,1.5046,1.5061,1.5099,1.5106,1.5079,1.5137,1.5145,1.5173,1.5178,1.5178,1.5181,1.5249,1.5249,1.525,1.5228,0,0,0,0,0,0,1.4909,1.4921,1.4929,1.4971,1.4984,1.5029,1.504,1.5048,1.5066,1.5068,1.5108,1.5115,1.5137,1.5169,1.5176,1.5182,1.5183,1.5249,1.5249,1.525,1.5228,1.5227,1.5226,0,0,0,0,0,1.4905,1.492,1.493,1.4939,1.4995,1.5029,1.5037,1.5063,1.5066,1.5074,1.5099,1.5113,1.5176,1.5172,1.518,1.5187,1.5249,1.5249,1.5249,1.5228,1.5227,1.5226,0,0,0,0,0,0,1.4878,1.4926,1.4937,1.4966,1.4994,1.5035,1.5047,1.5061,1.5088,1.5089,1.5119,1.5128,1.5154,1.5173,1.5167,1.5208,1.5214,1.5216,1.5195,1.5194,1.5193,1.5188,1.5186,0,0,0,0,0,1.4876,1.49,1.494,1.4962,1.4975,1.5008,1.5024,1.5042,1.5071,1.5083,1.511,1.5137,1.5163,1.5179,1.5205,1.5231,1.524,1.5239,1.5238,1.5237,1.5239,1.5253,1.5253,1.5251,1.5251,1.5251,0,0,1.4871,1.49,1.4914,1.4958,1.4981,1.5004,1.5018,1.5043,1.506,1.5086,1.5115,1.5135,1.5168,1.5195,1.5208,1.5212,1.5241,1.5238,1.5237,1.5239,1.5253,1.5253,1.5254,1.5251,1.5251,1.5251,0,0,1.4874,1.4899,1.492,1.4942,1.4977,1.4999,1.5004,1.5043,1.5057,1.5086,1.5106,1.5127,1.5171,1.5193,1.521,1.522,1.5234,1.5228,1.5223,1.5236,1.5236,1.5236,1.5239,1.524,1.5229,1.5229,1.5229,0,1.4864,1.4901,1.4928,1.4952,1.497,1.4994,1.5015,1.5035,1.5077,1.5088,1.5092,1.5147,1.5171,1.5203,1.5205,1.5218,1.5224,1.5223,1.5234,1.5234,1.5235,1.5238,1.5239,1.5228,1.5228,1.5228,1.5228,0,1.4886,1.4911,1.4923,1.4963,1.4982,1.5004,1.5034,1.505,1.5065,1.5086,1.5115,1.5144,1.5176,1.5185,1.52,1.5218,1.522,1.5228,1.5234,1.5234,1.5237,1.5239,1.5226,1.5227,1.5227,1.5227,0,0,1.4876,1.4929,1.4933,1.495,1.499,1.501,1.5032,1.5063,1.5076,1.5103,1.5122,1.5158,1.5166,1.5185,1.5203,1.5214,1.5219,1.5221,1.5223,1.522,1.5241,1.5234,1.5235,1.5229,1.5229,1.5229,1.5238,0,1.4884,1.4926,1.495,1.4982,1.5004,1.5027,1.5046,1.5072,1.5092,1.5114,1.5135,1.516,1.5169,1.518,1.5193,1.5216,1.5224,1.5216,1.5246,1.5247,1.5237,1.5237,1.523,1.5237,1.5239,1.524,1.524,0,1.49,1.4927,1.496,1.4996,1.5007,1.5023,1.5053,1.5074,1.5103,1.5117,1.5137,1.5155,1.5178,1.5182,1.5214,1.5208,1.5222,1.5235,1.5236,1.524,1.5243,1.5241,1.524,1.5241,1.5242,1.5242,1.5242,0,1.4889,1.4933,1.4958,1.4973,1.5015,1.5026,1.5044,1.5074,1.509,1.5116,1.5127,1.5155,1.517,1.5191,1.5216,1.5216,1.5245,1.5251,1.5257,1.5256,1.5262,1.5261,1.5263,1.527,1.527,1.527,1.527,0,1.4896,1.4915,1.4954,1.4969,1.4991,1.5019,1.5039,1.5059,1.5085,1.5104,1.5125,1.5142,1.5174,1.5195,1.5214,1.5237,1.5244,1.5255,1.526,1.5253,1.5252,1.5263,1.5263,1.5271,1.5271,1.5271,1.5271,0,1.4887,1.4914,1.4943,1.498,1.499,1.5005,1.5036,1.5052,1.5072,1.5096,1.5103,1.5135,1.5161,1.5187,1.5222,1.5235,1.5257,1.5264,1.5248,1.525,1.5254,1.5253,1.5263,1.5266,1.5271,1.5271,1.5271,0,1.489,1.4905,1.4944,1.4959,1.4976,1.5,1.5017,1.5043,1.506,1.5094,1.5105,1.5132,1.5156,1.5196,1.5221,1.5248,1.5255,1.5257,1.526,1.5252,1.5255,1.5254,1.5255,1.5256,1.5256,1.5256,1.5256,0,1.4892,1.4904,1.4928,1.4956,1.4976,1.4999,1.5023,1.5034,1.5065,1.5083,1.5109,1.5127,1.5163,1.5189,1.5218,1.5237,1.5251,1.5254,1.5257,1.5251,1.524,1.5246,1.5245,1.5254,1.5254,1.5254,1.5255,1.5255,1.4889,1.4904,1.4933,1.4959,1.4979,1.5001,1.5017,1.5039,1.5062,1.5093,1.5107,1.5134,1.5161,1.5202,1.5219,1.524,1.5244,1.5248,1.5249,1.525,1.5248,1.5237,1.5246,1.5246,1.5246,1.5246,1.5246,0,1.4892,1.4912,1.4935,1.4968,1.4988,1.4999,1.5026,1.5042,1.5065,1.509,1.5112,1.5142,1.5167,1.5195,1.5222,1.5233,1.524,1.5239,1.5239,1.5242,1.5243,1.5238,1.5233,1.5233,1.5233,1.5233,1.5233,1.5233,1.4896,1.4921,1.4936,1.4971,1.499,1.5016,1.5031,1.505,1.507,1.5103,1.5124,1.5142,1.5167,1.5196,1.5219,1.5227,1.5236,1.5233,1.5242,1.5242,1.5243,1.5243,1.5239,1.5234,1.5234,1.524,1.524,1.524]},{"header":{"parameterUnit":"m.s-1","parameterCategory":1,"la1":30.2991,"la2":30.254,"lo1":-89.0895,"lo2":-89.0444,"dy":0.0017,"dx":0.0017,"nx":28,"ny":28,"refTime":"2025-08-06T03:00:00:Z","depth":0,"parameterNumber":3,"parameterNumberName":"V-component_of_WINDS"},"data":[0,0,0,0,0,0,0,0,0,0,0,0,0,0,0,0,0,0,0,0,0,0,0,0,0,0,0,0,0,0,0,0,0,0,0,0,0,0,0,0,0,0,0,0,0,0,0,0,0,0,0,0,0,0,0,0,0,0,1.3924,1.3924,0,1.3892,1.3892,1.3892,1.3874,1.3874,1.3874,1.3873,1.3839,1.3838,1.3838,0,0,0,0,0,0,0,0,0,0,0,0,0,1.3966,1.3965,1.3924,1.3924,1.3923,1.3892,1.3892,1.3892,1.3874,1.3874,1.3873,1.3873,1.384,1.3839,1.3837,0,0,0,0,0,0,0,0,0,0,0,0,0,1.3942,1.3965,1.3924,1.3911,1.3909,1.3893,1.3892,1.3891,1.3874,1.3874,1.3873,1.3873,1.384,1.3839,1.3837,1.3831,0,0,1.3833,1.3833,0,0,0,0,0,0,0,0,1.3944,1.3941,1.3913,1.3911,1.391,1.3887,1.3894,1.3871,1.3874,1.3887,1.3873,1.3873,1.3855,1.3853,1.3847,1.383,1.3828,1.3833,1.3833,1.3832,1.3832,0,0,0,0,0,0,0,1.3945,1.3942,1.3911,1.3913,1.3911,1.3905,1.3902,1.389,1.3872,1.3886,1.3885,1.3881,1.3854,1.3848,1.3846,1.3828,1.3833,1.3832,1.3831,1.3831,1.3802,1.3802,0,0,0,0,0,0,1.395,1.3944,1.3912,1.391,1.3927,1.3905,1.3901,1.3894,1.3872,1.3869,1.3881,1.388,1.385,1.3847,1.3845,1.3835,1.3832,1.3831,1.383,1.3802,1.3802,1.3802,0,0,0,0,0,0,1.3951,1.3947,1.3914,1.3927,1.3922,1.3904,1.3897,1.3894,1.3888,1.3868,1.3865,1.3878,1.385,1.3846,1.3834,1.3834,1.383,1.3829,1.3802,1.3802,1.3802,1.3816,0,0,0,0,0,0,1.3952,1.3947,1.3946,1.3927,1.3921,1.3905,1.3897,1.3893,1.3886,1.3884,1.3865,1.3862,1.385,1.3836,1.3833,1.3832,1.3828,1.3802,1.3802,1.3802,1.3816,1.3817,1.3818,0,0,0,0,0,1.3953,1.3951,1.3946,1.3942,1.3919,1.3905,1.3902,1.3889,1.3886,1.3883,1.3871,1.3862,1.3834,1.3835,1.3832,1.383,1.3802,1.3802,1.3802,1.3816,1.3817,1.3818,0,0,0,0,0,0,1.397,1.3948,1.3942,1.3934,1.3921,1.3902,1.3899,1.3891,1.3879,1.3878,1.3861,1.3857,1.3847,1.3837,1.3839,1.3822,1.3817,1.3816,1.3829,1.383,1.383,1.3833,1.3827,0,0,0,0,0,1.3972,1.3964,1.3945,1.3939,1.3933,1.3917,1.3911,1.3901,1.3888,1.3882,1.3869,1.3856,1.3843,1.3836,1.3824,1.3814,1.3809,1.3811,1.3812,1.3813,1.3812,1.3805,1.3805,1.3802,1.3802,1.3802,0,0,1.3978,1.3965,1.396,1.3942,1.3931,1.3922,1.3913,1.3903,1.3896,1.3881,1.3869,1.3858,1.3842,1.3831,1.3825,1.3823,1.3812,1.3813,1.3814,1.3813,1.3805,1.3805,1.3806,1.3802,1.3802,1.3802,0,0,1.3982,1.3972,1.3966,1.3955,1.3939,1.3928,1.3927,1.3908,1.3901,1.3889,1.3877,1.3867,1.3847,1.3836,1.3827,1.3826,1.3818,1.3823,1.3827,1.3821,1.3821,1.3821,1.382,1.382,1.3822,1.3822,1.3822,0,1.3991,1.3977,1.3963,1.3954,1.3946,1.3932,1.3925,1.3915,1.3896,1.389,1.3887,1.3861,1.3849,1.3835,1.3834,1.3828,1.3825,1.3825,1.3822,1.3822,1.3822,1.3821,1.382,1.3823,1.3823,1.3823,1.3823,0,1.3987,1.3977,1.3974,1.3956,1.3947,1.3939,1.3924,1.3916,1.3908,1.3897,1.3883,1.3869,1.3853,1.3849,1.384,1.3832,1.3831,1.3825,1.382,1.3823,1.3822,1.3821,1.3824,1.3824,1.3824,1.3823,0,0,1.4001,1.3976,1.3975,1.3966,1.3947,1.3939,1.3929,1.3914,1.3908,1.3895,1.3886,1.3869,1.3863,1.3853,1.3843,1.3837,1.3836,1.3832,1.3831,1.3833,1.3826,1.383,1.383,1.383,1.383,1.383,1.3827,0,1.4003,1.3986,1.3973,1.3961,1.3951,1.3938,1.3929,1.3916,1.3905,1.3894,1.3882,1.387,1.3864,1.3858,1.3851,1.3838,1.3834,1.3838,1.3821,1.382,1.3825,1.3829,1.3833,1.3831,1.3826,1.3826,1.3826,0,1.4002,1.399,1.3977,1.3958,1.3954,1.3947,1.3931,1.3921,1.3906,1.3898,1.3887,1.3876,1.3864,1.386,1.3843,1.3846,1.3838,1.383,1.3829,1.3827,1.3823,1.3826,1.383,1.3829,1.3825,1.3825,1.3825,0,1.4013,1.3993,1.3983,1.3976,1.3954,1.3949,1.3939,1.3924,1.3915,1.3901,1.3895,1.388,1.3872,1.3859,1.3844,1.3843,1.3828,1.3823,1.3821,1.3821,1.3818,1.3818,1.382,1.3814,1.3814,1.3814,1.3814,0,1.4016,1.4008,1.3987,1.3981,1.3971,1.3956,1.3947,1.3936,1.3922,1.3912,1.3899,1.389,1.3871,1.3859,1.3847,1.3834,1.383,1.3823,1.382,1.3824,1.3825,1.3818,1.3818,1.3814,1.3814,1.3814,1.3814,0,1.4027,1.4013,1.4,1.398,1.3975,1.3969,1.3951,1.3943,1.3932,1.3919,1.3915,1.3896,1.3882,1.3866,1.3845,1.3837,1.3824,1.382,1.383,1.3828,1.3826,1.3826,1.3824,1.3822,1.3817,1.3817,1.3817,0,1.4029,1.4023,1.4002,1.3995,1.3986,1.3975,1.3966,1.395,1.3941,1.3922,1.3917,1.3901,1.3888,1.3865,1.3848,1.3832,1.3827,1.3827,1.3825,1.3829,1.3826,1.3827,1.3826,1.3828,1.3828,1.3828,1.3829,0,1.4035,1.4028,1.4016,1.4002,1.3992,1.3979,1.3966,1.3961,1.3942,1.3933,1.3918,1.3907,1.3886,1.3871,1.3853,1.3841,1.3831,1.383,1.3828,1.3832,1.3838,1.3834,1.3832,1.383,1.383,1.3829,1.3829,1.3829,1.4041,1.4035,1.4019,1.4006,1.3994,1.3982,1.3974,1.3961,1.3949,1.3931,1.3922,1.3907,1.389,1.3865,1.3854,1.3841,1.3838,1.3836,1.3835,1.3834,1.3835,1.384,1.3837,1.3837,1.3837,1.3837,1.3837,0,1.4046,1.4035,1.4023,1.4005,1.3995,1.3987,1.3972,1.3963,1.395,1.3935,1.3923,1.3905,1.3889,1.3871,1.3854,1.3847,1.3842,1.3843,1.3843,1.3841,1.3839,1.3842,1.3847,1.3847,1.3847,1.3847,1.3847,1.3847,1.4047,1.4035,1.4026,1.4008,1.3997,1.3982,1.3974,1.3963,1.3951,1.3932,1.3919,1.3908,1.3891,1.3873,1.3857,1.3852,1.3846,1.3849,1.3842,1.3842,1.3841,1.384,1.3843,1.3848,1.3848,1.3844,1.3844,1.3844]}]]